Time,TemperatureF,DewpointF,PressureIn,WindDirection,WindDirectionDegrees,WindSpeedMPH,WindSpeedGustMPH,Humidity,HourlyPrecipIn,Conditions,Clouds,dailyrainin,SoftwareType,DateUTC
2013-01-16 00:05:00,30.0,22.1,30.05,NE,34,0.0,0.0,72,0.00,,,0.00,Wunderground v.1.15,2013-01-16 05:05:00,
2013-01-16 00:10:00,30.0,22.4,30.05,NE,34,0.0,0.0,73,0.00,,,0.00,Wunderground v.1.15,2013-01-16 05:10:00,
2013-01-16 00:15:00,30.0,22.1,30.04,NE,34,0.0,0.0,72,0.00,,,0.00,Wunderground v.1.15,2013-01-16 05:15:00,
2013-01-16 00:25:00,30.0,22.1,30.04,NNE,19,0.0,0.0,72,0.00,,,0.00,Wunderground v.1.15,2013-01-16 05:25:00,
2013-01-16 00:30:00,30.0,22.1,30.04,NNE,21,0.0,1.0,72,0.00,,,0.00,Wunderground v.1.15,2013-01-16 05:30:00,
2013-01-16 00:40:00,30.0,22.1,30.04,NNE,22,0.0,0.0,72,0.00,,,0.00,Wunderground v.1.15,2013-01-16 05:40:00,
2013-01-16 00:45:00,30.0,22.1,30.03,NNE,22,0.0,0.0,72,0.00,,,0.00,Wunderground v.1.15,2013-01-16 05:45:00,
2013-01-16 00:55:00,30.0,21.7,30.03,NNE,22,0.0,0.0,71,0.00,,,0.00,Wunderground v.1.15,2013-01-16 05:55:00,
2013-01-16 01:00:00,30.0,22.1,30.03,NNE,22,0.0,0.0,72,0.00,,,0.00,Wunderground v.1.15,2013-01-16 06:00:00,
2013-01-16 01:10:00,30.0,21.7,30.03,NNE,22,0.0,0.0,71,0.00,,,0.00,Wunderground v.1.15,2013-01-16 06:10:00,
2013-01-16 01:15:00,30.1,22.2,30.01,NNE,22,0.0,0.0,72,0.00,,,0.00,Wunderground v.1.15,2013-01-16 06:15:00,
2013-01-16 01:25:00,30.0,21.7,30.01,NNE,22,0.0,0.0,71,0.00,,,0.00,Wunderground v.1.15,2013-01-16 06:25:00,
2013-01-16 01:30:00,30.0,21.7,30.00,NNE,22,0.0,0.0,71,0.00,,,0.00,Wunderground v.1.15,2013-01-16 06:30:00,
2013-01-16 01:40:00,30.0,22.1,30.00,NNE,22,0.0,0.0,72,0.00,,,0.00,Wunderground v.1.15,2013-01-16 06:40:00,
2013-01-16 01:45:00,30.0,22.1,30.01,NNE,21,0.0,0.0,72,0.00,,,0.00,Wunderground v.1.15,2013-01-16 06:45:00,
2013-01-16 01:55:00,30.0,22.4,30.01,NNE,22,0.0,0.0,73,0.00,,,0.00,Wunderground v.1.15,2013-01-16 06:55:00,
2013-01-16 02:00:00,30.0,22.1,29.99,NE,49,0.0,0.0,72,0.00,,,0.00,Wunderground v.1.15,2013-01-16 07:00:00,
2013-01-16 02:10:00,30.0,22.1,29.99,NE,49,0.0,0.0,72,0.00,,,0.00,Wunderground v.1.15,2013-01-16 07:10:00,
2013-01-16 02:20:00,30.0,22.4,29.98,NE,49,0.0,0.0,73,0.00,,,0.00,Wunderground v.1.15,2013-01-16 07:20:00,
2013-01-16 02:25:00,30.0,22.4,29.98,NE,49,0.0,0.0,73,0.00,,,0.00,Wunderground v.1.15,2013-01-16 07:25:00,
2013-01-16 02:30:00,30.0,22.4,30.01,NE,49,0.0,0.0,73,0.00,,,0.00,Wunderground v.1.15,2013-01-16 07:30:00,
2013-01-16 02:40:00,30.1,22.5,30.01,NE,49,0.0,0.0,73,0.00,,,0.00,Wunderground v.1.15,2013-01-16 07:40:00,
2013-01-16 02:45:00,30.1,22.5,30.02,NE,49,0.0,0.0,73,0.00,,,0.00,Wunderground v.1.15,2013-01-16 07:45:00,
2013-01-16 02:55:00,30.1,22.5,30.02,NE,49,0.0,0.0,73,0.00,,,0.00,Wunderground v.1.15,2013-01-16 07:55:00,
2013-01-16 03:00:00,30.1,22.5,30.01,NE,49,0.0,0.0,73,0.00,,,0.00,Wunderground v.1.15,2013-01-16 08:00:00,
2013-01-16 03:10:00,30.1,22.5,30.01,NE,49,0.0,0.0,73,0.00,,,0.00,Wunderground v.1.15,2013-01-16 08:10:00,
2013-01-16 03:16:00,30.1,22.5,30.00,NE,49,0.0,0.0,73,0.00,,,0.00,Wunderground v.1.15,2013-01-16 08:16:00,
2013-01-16 03:25:00,30.1,22.5,30.00,NE,48,0.0,0.0,73,0.00,,,0.00,Wunderground v.1.15,2013-01-16 08:25:00,
2013-01-16 03:30:00,30.1,22.5,30.00,NE,48,0.0,0.0,73,0.00,,,0.00,Wunderground v.1.15,2013-01-16 08:30:00,
2013-01-16 03:40:00,30.1,22.5,30.00,NE,48,0.0,0.0,73,0.00,,,0.00,Wunderground v.1.15,2013-01-16 08:40:00,
2013-01-16 03:45:00,30.1,22.8,30.00,NE,48,0.0,0.0,74,0.00,,,0.00,Wunderground v.1.15,2013-01-16 08:45:00,
2013-01-16 03:55:00,30.1,22.8,30.00,NE,48,0.0,0.0,74,0.00,,,0.00,Wunderground v.1.15,2013-01-16 08:55:00,
2013-01-16 04:00:00,30.1,22.8,29.99,NE,48,0.0,0.0,74,0.00,,,0.00,Wunderground v.1.15,2013-01-16 09:00:00,
2013-01-16 04:05:00,30.1,22.8,29.99,NE,48,0.0,0.0,74,0.00,,,0.00,Wunderground v.1.15,2013-01-16 09:05:00,
2013-01-16 04:15:00,30.1,22.8,29.96,NE,48,0.0,0.0,74,0.00,,,0.00,Wunderground v.1.15,2013-01-16 09:15:00,
2013-01-16 04:25:00,30.1,22.8,29.96,NE,48,0.0,0.0,74,0.00,,,0.00,Wunderground v.1.15,2013-01-16 09:25:00,
2013-01-16 04:30:00,30.0,22.7,29.96,NE,48,0.0,0.0,74,0.00,,,0.00,Wunderground v.1.15,2013-01-16 09:30:00,
2013-01-16 04:40:00,30.0,23.0,29.96,NE,48,0.0,0.0,75,0.00,,,0.00,Wunderground v.1.15,2013-01-16 09:40:00,
2013-01-16 04:45:00,30.0,23.0,29.95,NE,48,0.0,0.0,75,0.00,,,0.00,Wunderground v.1.15,2013-01-16 09:45:00,
2013-01-16 04:55:00,30.0,23.0,29.95,NE,48,0.0,0.0,75,0.00,,,0.00,Wunderground v.1.15,2013-01-16 09:55:00,
2013-01-16 05:00:00,30.0,22.7,29.96,NE,48,0.0,0.0,74,0.00,,,0.00,Wunderground v.1.15,2013-01-16 10:00:00,
2013-01-16 05:10:00,30.0,23.0,29.96,NE,48,0.0,0.0,75,0.00,,,0.00,Wunderground v.1.15,2013-01-16 10:10:00,
2013-01-16 05:15:00,30.0,23.0,29.95,NE,48,0.0,0.0,75,0.00,,,0.00,Wunderground v.1.15,2013-01-16 10:15:00,
2013-01-16 05:25:00,30.0,22.7,29.95,NE,48,0.0,0.0,74,0.00,,,0.00,Wunderground v.1.15,2013-01-16 10:25:00,
2013-01-16 05:30:00,30.0,22.7,29.94,NE,48,0.0,0.0,74,0.00,,,0.00,Wunderground v.1.15,2013-01-16 10:30:00,
2013-01-16 05:40:00,30.1,23.1,29.94,NE,48,0.0,0.0,75,0.00,,,0.00,Wunderground v.1.15,2013-01-16 10:40:00,
2013-01-16 05:45:00,30.0,23.0,29.94,NE,48,0.0,0.0,75,0.00,,,0.00,Wunderground v.1.15,2013-01-16 10:45:00,
2013-01-16 05:55:00,30.0,23.0,29.94,NE,48,0.0,1.0,75,0.00,,,0.00,Wunderground v.1.15,2013-01-16 10:55:00,
2013-01-16 06:00:00,30.0,22.7,29.93,NE,48,0.0,0.0,74,0.00,,,0.00,Wunderground v.1.15,2013-01-16 11:00:00,
2013-01-16 06:10:00,30.0,23.0,29.93,NE,48,0.0,0.0,75,0.00,,,0.00,Wunderground v.1.15,2013-01-16 11:10:00,
2013-01-16 06:15:00,30.0,22.7,29.94,NE,48,0.0,0.0,74,0.00,,,0.00,Wunderground v.1.15,2013-01-16 11:15:00,
2013-01-16 06:25:00,30.0,22.7,29.94,NE,48,0.0,0.0,74,0.00,,,0.00,Wunderground v.1.15,2013-01-16 11:25:00,
2013-01-16 06:30:00,30.0,22.7,29.94,NE,48,0.0,0.0,74,0.00,,,0.00,Wunderground v.1.15,2013-01-16 11:30:00,
2013-01-16 06:40:00,30.0,22.7,29.94,NE,48,0.0,0.0,74,0.00,,,0.00,Wunderground v.1.15,2013-01-16 11:40:00,
2013-01-16 06:45:00,30.1,23.1,29.94,NE,48,0.0,0.0,75,0.00,,,0.00,Wunderground v.1.15,2013-01-16 11:45:00,
2013-01-16 06:55:00,30.1,23.1,29.94,NE,48,0.0,0.0,75,0.00,,,0.00,Wunderground v.1.15,2013-01-16 11:55:00,
2013-01-16 07:00:00,30.1,23.1,29.92,NE,48,0.0,0.0,75,0.00,,,0.00,Wunderground v.1.15,2013-01-16 12:00:00,
2013-01-16 07:10:00,30.1,23.1,29.92,NE,48,0.0,0.0,75,0.00,,,0.00,Wunderground v.1.15,2013-01-16 12:10:00,
2013-01-16 07:15:00,30.1,23.1,29.94,NE,48,0.0,0.0,75,0.00,,,0.00,Wunderground v.1.15,2013-01-16 12:15:00,
2013-01-16 07:25:00,30.1,22.8,29.94,NE,48,0.0,0.0,74,0.00,,,0.00,Wunderground v.1.15,2013-01-16 12:25:00,
2013-01-16 07:30:00,30.1,22.8,29.94,NE,48,0.0,0.0,74,0.00,,,0.00,Wunderground v.1.15,2013-01-16 12:30:00,
2013-01-16 07:40:00,30.1,22.8,29.94,NE,48,0.0,0.0,74,0.00,,,0.00,Wunderground v.1.15,2013-01-16 12:40:00,
2013-01-16 07:45:00,30.1,22.8,29.94,NE,48,0.0,0.0,74,0.00,,,0.00,Wunderground v.1.15,2013-01-16 12:45:00,
2013-01-16 07:55:00,30.1,23.1,29.94,NE,48,0.0,0.0,75,0.00,,,0.00,Wunderground v.1.15,2013-01-16 12:55:00,
2013-01-16 08:00:00,30.1,23.1,29.93,NE,48,0.0,0.0,75,0.00,,,0.00,Wunderground v.1.15,2013-01-16 13:00:00,
2013-01-16 08:10:00,30.3,23.3,29.93,NE,48,0.0,0.0,75,0.00,,,0.00,Wunderground v.1.15,2013-01-16 13:10:00,
2013-01-16 08:15:00,30.3,23.3,29.95,NE,48,0.0,0.0,75,0.00,,,0.00,Wunderground v.1.15,2013-01-16 13:15:00,
2013-01-16 08:25:00,30.3,23.0,29.95,NE,48,0.0,0.0,74,0.00,,,0.00,Wunderground v.1.15,2013-01-16 13:25:00,
2013-01-16 08:30:00,30.3,23.3,29.94,NE,48,0.0,0.0,75,0.00,,,0.00,Wunderground v.1.15,2013-01-16 13:30:00,
2013-01-16 08:40:00,30.3,23.3,29.94,NE,48,0.0,0.0,75,0.00,,,0.00,Wunderground v.1.15,2013-01-16 13:40:00,
2013-01-16 08:45:00,30.4,23.4,29.95,NE,48,0.0,0.0,75,0.00,,,0.00,Wunderground v.1.15,2013-01-16 13:45:00,
2013-01-16 08:55:00,30.4,23.1,29.95,NE,48,0.0,0.0,74,0.00,,,0.00,Wunderground v.1.15,2013-01-16 13:55:00,
2013-01-16 09:00:00,30.4,23.1,29.94,NE,48,0.0,0.0,74,0.00,,,0.00,Wunderground v.1.15,2013-01-16 14:00:00,
2013-01-16 09:10:00,30.4,23.1,29.94,NE,48,0.0,0.0,74,0.00,,,0.00,Wunderground v.1.15,2013-01-16 14:10:00,
2013-01-16 09:15:00,30.4,23.1,29.94,SSE,154,0.0,0.0,74,0.00,,,0.00,Wunderground v.1.15,2013-01-16 14:15:00,
2013-01-16 09:25:00,30.6,23.3,29.94,SSE,154,0.0,0.0,74,0.00,,,0.00,Wunderground v.1.15,2013-01-16 14:25:00,
2013-01-16 09:30:00,30.6,23.6,29.95,SSE,154,0.0,0.0,75,0.00,,,0.00,Wunderground v.1.15,2013-01-16 14:30:00,
2013-01-16 09:40:00,30.7,23.7,29.95,SSE,154,0.0,0.0,75,0.00,,,0.00,Wunderground v.1.15,2013-01-16 14:40:00,
2013-01-16 09:45:00,30.7,23.7,29.95,SSE,154,0.0,0.0,75,0.00,,,0.00,Wunderground v.1.15,2013-01-16 14:45:00,
2013-01-16 09:55:00,30.9,24.2,29.95,SSE,154,0.0,1.0,76,0.00,,,0.00,Wunderground v.1.15,2013-01-16 14:55:00,
2013-01-16 10:00:00,31.0,24.0,29.96,SE,136,0.0,3.0,75,0.00,,,0.00,Wunderground v.1.15,2013-01-16 15:00:00,
2013-01-16 10:05:00,31.0,24.3,29.96,SSE,151,1.0,3.0,76,0.00,,,0.00,Wunderground v.1.15,2013-01-16 15:05:00,
2013-01-16 10:15:00,31.2,24.5,29.96,South,183,1.0,2.0,76,0.00,,,0.00,Wunderground v.1.15,2013-01-16 15:15:00,
2013-01-16 10:25:00,31.2,24.5,29.96,South,169,0.0,1.0,76,0.00,,,0.00,Wunderground v.1.15,2013-01-16 15:25:00,
2013-01-16 10:30:00,31.2,24.5,29.97,South,177,1.0,1.0,76,0.00,,,0.00,Wunderground v.1.15,2013-01-16 15:30:00,
2013-01-16 10:40:00,31.3,24.6,29.97,West,272,0.0,0.0,76,0.00,,,0.00,Wunderground v.1.15,2013-01-16 15:40:00,
2013-01-16 10:45:00,31.5,24.8,29.97,West,276,0.0,0.0,76,0.00,,,0.00,Wunderground v.1.15,2013-01-16 15:45:00,
2013-01-16 10:55:00,31.6,24.6,29.97,SW,217,1.0,1.0,75,0.00,,,0.00,Wunderground v.1.15,2013-01-16 15:55:00,
2013-01-16 11:01:00,31.8,25.1,29.96,WNW,296,1.0,1.0,76,0.00,,,0.00,Wunderground v.1.15,2013-01-16 16:01:00,
2013-01-16 11:10:00,31.8,25.1,29.96,SW,232,1.0,1.0,76,0.00,,,0.00,Wunderground v.1.15,2013-01-16 16:10:00,
2013-01-16 11:15:00,31.9,25.2,29.95,ESE,109,1.0,1.0,76,0.00,,,0.00,Wunderground v.1.15,2013-01-16 16:15:00,
2013-01-16 11:25:00,32.1,25.1,29.95,West,267,1.0,1.0,75,0.00,,,0.00,Wunderground v.1.15,2013-01-16 16:25:00,
2013-01-16 11:30:00,32.1,25.4,29.95,SSW,207,1.0,1.0,76,0.00,,,0.00,Wunderground v.1.15,2013-01-16 16:30:00,
2013-01-16 11:40:00,32.2,25.5,29.95,SSW,209,0.0,1.0,76,0.00,,,0.00,Wunderground v.1.15,2013-01-16 16:40:00,
2013-01-16 11:45:00,32.2,25.2,29.93,SSE,165,1.0,1.0,75,0.00,,,0.00,Wunderground v.1.15,2013-01-16 16:45:00,
2013-01-16 11:55:00,32.2,24.8,29.93,WSW,253,1.0,1.0,74,0.00,,,0.00,Wunderground v.1.15,2013-01-16 16:55:00,
2013-01-16 12:00:00,32.4,25.4,29.93,ESE,119,0.0,0.0,75,0.00,,,0.00,Wunderground v.1.15,2013-01-16 17:00:00,
2013-01-16 12:10:00,32.5,25.1,29.93,SW,221,1.0,1.0,74,0.00,,,0.00,Wunderground v.1.15,2013-01-16 17:10:00,
2013-01-16 12:15:00,32.5,25.5,29.94,West,269,1.0,3.0,75,0.00,,,0.00,Wunderground v.1.15,2013-01-16 17:15:00,
2013-01-16 12:25:00,32.4,24.7,29.94,WSW,250,1.0,1.0,73,0.00,,,0.00,Wunderground v.1.15,2013-01-16 17:25:00,
2013-01-16 12:31:00,32.4,24.7,29.92,SE,134,1.0,1.0,73,0.00,,,0.00,Wunderground v.1.15,2013-01-16 17:31:00,
2013-01-16 12:40:00,32.5,24.8,29.92,WSW,253,1.0,1.0,73,0.00,,,0.00,Wunderground v.1.15,2013-01-16 17:40:00,
2013-01-16 12:45:00,32.7,25.3,29.92,SSW,213,1.0,1.0,74,0.00,,,0.00,Wunderground v.1.15,2013-01-16 17:45:00,
2013-01-16 12:55:00,32.7,25.3,29.92,SSW,204,1.0,1.0,74,0.00,,,0.00,Wunderground v.1.15,2013-01-16 17:55:00,
2013-01-16 13:00:00,32.7,25.0,29.91,West,273,1.0,1.0,73,0.00,,,0.00,Wunderground v.1.15,2013-01-16 18:00:00,
2013-01-16 13:10:00,32.9,25.2,29.91,WNW,294,1.0,1.0,73,0.00,,,0.00,Wunderground v.1.15,2013-01-16 18:10:00,
2013-01-16 13:15:00,33.1,25.1,29.91,WSW,246,1.0,1.0,72,0.00,,,0.00,Wunderground v.1.15,2013-01-16 18:15:00,
2013-01-16 13:25:00,33.4,25.3,29.91,WSW,257,1.0,3.0,72,0.00,,,0.00,Wunderground v.1.15,2013-01-16 18:25:00,
2013-01-16 13:30:00,33.5,25.1,29.90,West,264,1.0,1.0,71,0.00,,,0.00,Wunderground v.1.15,2013-01-16 18:30:00,
2013-01-16 13:40:00,33.8,24.7,29.90,WSW,254,1.0,1.0,69,0.00,,,0.00,Wunderground v.1.15,2013-01-16 18:40:00,
2013-01-16 13:45:00,34.0,24.5,29.90,WSW,257,1.0,2.0,68,0.00,,,0.00,Wunderground v.1.15,2013-01-16 18:45:00,
2013-01-16 13:55:00,34.0,24.2,29.90,West,275,1.0,1.0,67,0.00,,,0.00,Wunderground v.1.15,2013-01-16 18:55:00,
2013-01-16 14:00:00,34.1,24.6,29.89,SSW,213,1.0,1.0,68,0.00,,,0.00,Wunderground v.1.15,2013-01-16 19:00:00,
2013-01-16 14:10:00,34.3,25.5,29.89,SW,221,1.0,1.0,70,0.00,,,0.00,Wunderground v.1.15,2013-01-16 19:10:00,
2013-01-16 14:15:00,34.4,24.9,29.90,West,262,1.0,1.0,68,0.00,,,0.00,Wunderground v.1.15,2013-01-16 19:15:00,
2013-01-16 14:25:00,34.6,25.1,29.90,WSW,257,1.0,4.0,68,0.00,,,0.00,Wunderground v.1.15,2013-01-16 19:25:00,
2013-01-16 14:30:00,34.7,25.2,29.90,SW,225,1.0,3.0,68,0.00,,,0.00,Wunderground v.1.15,2013-01-16 19:30:00,
2013-01-16 14:40:00,34.7,25.2,29.90,SSW,211,1.0,3.0,68,0.00,,,0.00,Wunderground v.1.15,2013-01-16 19:40:00,
2013-01-16 14:45:00,34.7,25.2,29.92,SW,221,1.0,3.0,68,0.00,,,0.00,Wunderground v.1.15,2013-01-16 19:45:00,
2013-01-16 14:55:00,34.7,25.6,29.92,SSW,205,1.0,1.0,69,0.00,,,0.00,Wunderground v.1.15,2013-01-16 19:55:00,
2013-01-16 15:00:00,34.7,25.2,29.92,WSW,258,1.0,1.0,68,0.00,,,0.00,Wunderground v.1.15,2013-01-16 20:00:00,
2013-01-16 15:05:00,34.6,25.1,29.92,South,184,1.0,1.0,68,0.00,,,0.00,Wunderground v.1.15,2013-01-16 20:05:00,
2013-01-16 15:15:00,34.6,25.1,29.92,South,173,1.0,1.0,68,0.00,,,0.00,Wunderground v.1.15,2013-01-16 20:15:00,
2013-01-16 15:25:00,34.7,25.6,29.92,South,175,0.0,2.0,69,0.00,,,0.00,Wunderground v.1.15,2013-01-16 20:25:00,
2013-01-16 15:30:00,34.7,25.2,29.92,WSW,250,1.0,1.0,68,0.00,,,0.00,Wunderground v.1.15,2013-01-16 20:30:00,
2013-01-16 15:40:00,34.7,25.2,29.92,South,178,1.0,3.0,68,0.00,,,0.00,Wunderground v.1.15,2013-01-16 20:40:00,
2013-01-16 15:45:00,34.6,25.5,29.92,West,275,1.0,3.0,69,0.00,,,0.00,Wunderground v.1.15,2013-01-16 20:45:00,
2013-01-16 15:55:00,34.3,25.2,29.92,South,173,1.0,4.0,69,0.00,,,0.00,Wunderground v.1.15,2013-01-16 20:55:00,
2013-01-16 16:00:00,34.1,25.3,29.93,WSW,250,1.0,3.0,70,0.00,,,0.00,Wunderground v.1.15,2013-01-16 21:00:00,
2013-01-16 16:05:00,34.1,25.7,29.93,South,188,1.0,5.0,71,0.00,,,0.00,Wunderground v.1.15,2013-01-16 21:05:00,
2013-01-16 16:15:00,33.8,25.7,29.93,SE,132,2.0,2.0,72,0.00,,,0.00,Wunderground v.1.15,2013-01-16 21:15:00,
2013-01-16 16:25:00,33.7,26.0,29.93,South,178,2.0,5.0,73,0.00,,,0.00,Wunderground v.1.15,2013-01-16 21:25:00,
2013-01-16 16:30:00,33.5,26.1,29.94,SSW,212,2.0,2.0,74,0.00,,,0.00,Wunderground v.1.15,2013-01-16 21:30:00,
2013-01-16 16:40:00,33.2,26.1,29.94,WSW,238,2.0,2.0,75,0.00,,,0.00,Wunderground v.1.15,2013-01-16 21:40:00,
2013-01-16 16:45:00,33.2,26.1,29.94,SW,232,2.0,2.0,75,0.00,,,0.00,Wunderground v.1.15,2013-01-16 21:45:00,
2013-01-16 16:55:00,33.1,26.4,29.94,SW,219,2.0,3.0,76,0.00,,,0.00,Wunderground v.1.15,2013-01-16 21:55:00,
2013-01-16 17:00:00,32.9,26.2,29.95,SW,228,1.0,2.0,76,0.00,,,0.00,Wunderground v.1.15,2013-01-16 22:00:00,
2013-01-16 17:10:00,32.8,26.1,29.95,WSW,242,2.0,4.0,76,0.00,,,0.00,Wunderground v.1.15,2013-01-16 22:10:00,
2013-01-16 17:15:00,32.7,26.3,29.95,SSW,201,2.0,4.0,77,0.00,,,0.00,Wunderground v.1.15,2013-01-16 22:15:00,
2013-01-16 17:25:00,32.5,26.1,29.95,SSW,205,2.0,2.0,77,0.00,,,0.00,Wunderground v.1.15,2013-01-16 22:25:00,
2013-01-16 17:30:00,32.5,26.1,29.95,SSE,166,2.0,8.0,77,0.00,,,0.00,Wunderground v.1.15,2013-01-16 22:30:00,
2013-01-16 17:40:00,32.4,26.0,29.95,SW,225,3.0,3.0,77,0.00,,,0.00,Wunderground v.1.15,2013-01-16 22:40:00,
2013-01-16 17:46:00,32.4,26.0,29.95,SSE,153,2.0,3.0,77,0.00,,,0.00,Wunderground v.1.15,2013-01-16 22:46:00,
2013-01-16 17:55:00,32.2,25.8,29.95,South,181,1.0,4.0,77,0.00,,,0.00,Wunderground v.1.15,2013-01-16 22:55:00,
2013-01-16 18:01:00,32.2,26.1,29.97,WSW,238,2.0,2.0,78,0.00,,,0.00,Wunderground v.1.15,2013-01-16 23:01:00,
2013-01-16 18:10:00,32.2,26.1,29.97,ESE,103,2.0,3.0,78,0.00,,,0.00,Wunderground v.1.15,2013-01-16 23:10:00,
2013-01-16 18:15:00,32.2,26.4,29.96,NW,306,3.0,7.0,79,0.00,,,0.00,Wunderground v.1.15,2013-01-16 23:15:00,
2013-01-16 18:25:00,32.1,26.3,29.96,SSE,166,2.0,3.0,79,0.00,,,0.00,Wunderground v.1.15,2013-01-16 23:25:00,
2013-01-16 18:30:00,32.1,26.6,29.96,SSW,208,3.0,5.0,80,0.00,,,0.00,Wunderground v.1.15,2013-01-16 23:30:00,
2013-01-16 18:40:00,31.9,26.4,29.96,South,182,2.0,2.0,80,0.00,,,0.00,Wunderground v.1.15,2013-01-16 23:40:00,
2013-01-16 18:45:00,31.9,26.7,29.97,SSE,166,2.0,2.0,81,0.00,,,0.00,Wunderground v.1.15,2013-01-16 23:45:00,
2013-01-16 18:55:00,31.8,26.9,29.97,WSW,253,1.0,2.0,82,0.00,,,0.00,Wunderground v.1.15,2013-01-16 23:55:00,
2013-01-16 19:00:00,31.8,26.9,29.98,West,261,1.0,1.0,82,0.00,,,0.00,Wunderground v.1.15,2013-01-17 00:00:00,
2013-01-16 19:10:00,31.6,27.3,29.98,SE,136,1.0,1.0,84,0.00,,,0.00,Wunderground v.1.15,2013-01-17 00:10:00,
2013-01-16 19:15:00,31.5,27.2,29.98,SE,127,1.0,1.0,84,0.00,,,0.00,Wunderground v.1.15,2013-01-17 00:15:00,
2013-01-16 19:25:00,31.5,27.5,29.98,SSW,206,1.0,3.0,85,0.00,,,0.00,Wunderground v.1.15,2013-01-17 00:25:00,
2013-01-16 19:30:00,31.5,27.5,29.98,SSW,193,2.0,2.0,85,0.00,,,0.00,Wunderground v.1.15,2013-01-17 00:30:00,
2013-01-16 19:40:00,31.5,27.8,29.98,WSW,251,1.0,2.0,86,0.00,,,0.00,Wunderground v.1.15,2013-01-17 00:40:00,
2013-01-16 19:45:00,31.5,27.8,29.98,SW,235,1.0,2.0,86,0.00,,,0.00,Wunderground v.1.15,2013-01-17 00:45:00,
2013-01-16 19:55:00,31.3,27.6,29.98,South,183,1.0,3.0,86,0.00,,,0.00,Wunderground v.1.15,2013-01-17 00:55:00,
2013-01-16 20:00:00,31.3,27.6,29.98,South,184,2.0,2.0,86,0.00,,,0.00,Wunderground v.1.15,2013-01-17 01:00:00,
2013-01-16 20:10:00,31.3,27.6,29.98,SE,145,2.0,2.0,86,0.00,,,0.00,Wunderground v.1.15,2013-01-17 01:10:00,
2013-01-16 20:15:00,31.3,27.6,29.98,SSE,148,2.0,2.0,86,0.00,,,0.00,Wunderground v.1.15,2013-01-17 01:15:00,
2013-01-16 20:25:00,31.2,27.5,29.98,WSW,238,2.0,2.0,86,0.00,,,0.00,Wunderground v.1.15,2013-01-17 01:25:00,
2013-01-16 20:30:00,31.2,27.5,29.99,SSW,198,2.0,3.0,86,0.00,,,0.00,Wunderground v.1.15,2013-01-17 01:30:00,
2013-01-16 20:40:00,31.2,27.8,29.99,South,174,2.0,3.0,87,0.00,,,0.00,Wunderground v.1.15,2013-01-17 01:40:00,
2013-01-16 20:45:00,31.0,27.6,30.00,WNW,286,2.0,3.0,87,0.00,,,0.00,Wunderground v.1.15,2013-01-17 01:45:00,
2013-01-16 20:55:00,31.0,27.6,30.00,South,189,2.0,3.0,87,0.00,,,0.00,Wunderground v.1.15,2013-01-17 01:55:00,
2013-01-16 21:00:00,31.0,27.6,29.99,SSE,167,2.0,2.0,87,0.00,,,0.00,Wunderground v.1.15,2013-01-17 02:00:00,
2013-01-16 21:10:00,31.0,27.6,29.99,SSW,194,2.0,2.0,87,0.00,,,0.00,Wunderground v.1.15,2013-01-17 02:10:00,
2013-01-16 21:15:00,31.0,27.6,30.00,SE,136,1.0,2.0,87,0.00,,,0.00,Wunderground v.1.15,2013-01-17 02:15:00,
2013-01-16 21:25:00,30.9,27.5,30.00,South,178,1.0,4.0,87,0.00,,,0.00,Wunderground v.1.15,2013-01-17 02:25:00,
2013-01-16 21:30:00,30.9,27.5,30.00,SSW,207,2.0,5.0,87,0.00,,,0.00,Wunderground v.1.15,2013-01-17 02:30:00,
2013-01-16 21:40:00,30.9,27.5,30.00,SSE,156,2.0,2.0,87,0.00,,,0.00,Wunderground v.1.15,2013-01-17 02:40:00,
2013-01-16 21:45:00,30.7,27.3,29.99,SSW,203,1.0,2.0,87,0.00,,,0.00,Wunderground v.1.15,2013-01-17 02:45:00,
2013-01-16 21:55:00,30.7,27.3,29.99,West,260,2.0,2.0,87,0.00,,,0.00,Wunderground v.1.15,2013-01-17 02:55:00,
2013-01-16 22:00:00,30.7,27.3,29.99,SW,234,2.0,2.0,87,0.00,,,0.00,Wunderground v.1.15,2013-01-17 03:00:00,
2013-01-16 22:10:00,30.7,27.6,29.99,South,180,2.0,2.0,88,0.00,,,0.00,Wunderground v.1.15,2013-01-17 03:10:00,
2013-01-16 22:15:00,30.7,27.6,29.99,SW,236,2.0,2.0,88,0.00,,,0.00,Wunderground v.1.15,2013-01-17 03:15:00,
2013-01-16 22:25:00,30.7,27.6,29.99,SSW,200,2.0,2.0,88,0.00,,,0.00,Wunderground v.1.15,2013-01-17 03:25:00,
2013-01-16 22:30:00,30.7,27.6,30.00,West,266,2.0,2.0,88,0.00,,,0.00,Wunderground v.1.15,2013-01-17 03:30:00,
2013-01-16 22:40:00,30.6,27.5,30.00,West,260,2.0,2.0,88,0.00,,,0.00,Wunderground v.1.15,2013-01-17 03:40:00,
2013-01-16 22:45:00,30.6,27.5,29.99,ESE,117,1.0,3.0,88,0.00,,,0.00,Wunderground v.1.15,2013-01-17 03:45:00,
2013-01-16 22:55:00,30.6,27.2,29.99,SSW,207,2.0,2.0,87,0.00,,,0.00,Wunderground v.1.15,2013-01-17 03:55:00,
2013-01-16 23:01:00,30.6,27.2,30.00,WSW,245,1.0,1.0,87,0.00,,,0.00,Wunderground v.1.15,2013-01-17 04:01:00,
2013-01-16 23:10:00,30.6,27.2,30.00,SSE,163,1.0,5.0,87,0.00,,,0.00,Wunderground v.1.15,2013-01-17 04:10:00,
2013-01-16 23:15:00,30.6,26.9,30.00,South,178,1.0,5.0,86,0.00,,,0.00,Wunderground v.1.15,2013-01-17 04:15:00,
2013-01-16 23:25:00,30.6,26.9,30.00,ESE,123,1.0,1.0,86,0.00,,,0.00,Wunderground v.1.15,2013-01-17 04:25:00,
2013-01-16 23:30:00,30.6,26.9,30.00,South,175,1.0,1.0,86,0.00,,,0.00,Wunderground v.1.15,2013-01-17 04:30:00,
2013-01-16 23:40:00,30.4,26.7,30.00,South,190,1.0,3.0,86,0.00,,,0.00,Wunderground v.1.15,2013-01-17 04:40:00,
2013-01-16 23:45:00,30.4,26.7,30.01,SW,236,1.0,3.0,86,0.00,,,0.00,Wunderground v.1.15,2013-01-17 04:45:00,
2013-01-16 23:55:00,30.4,26.4,30.01,SSE,157,1.0,2.0,85,0.00,,,0.00,Wunderground v.1.15,2013-01-17 04:55:00,